Find STARLINK-36794

NORAD ID: 70588 Constellation: starlink operational
LEOCIRCULAR

Live-Position

3D-Globus wird geladen...

Über STARLINK-36794

Beschreibung wird geladen...

Nächste Überflüge

Passes for default location (London). Set your location on the main map for personalized predictions.

Höhenverlauf

Loading altitude history...

Zweizeiliger Elementsatz

1 70588C 26099E 26122.89006944 -.00528630 00000+0 -65625-3 0 1227
2 70588 53.1634 22.5603 0004607 288.9657 182.3598 16.07285273 10
Epoch: 2. Mai 2026 • Age: 30 hours